[[{"header":{"parameterUnit":"m.s-1","parameterCategory":1,"la1":30.2991,"la2":30.254,"lo1":-89.0895,"lo2":-89.0444,"dy":0.0017,"dx":0.0017,"nx":28,"ny":28,"refTime":"2025-01-20T03:00:00:Z","depth":0,"parameterNumber":2,"parameterNumberName":"U-component_of_WINDS"},"data":[0,0,0,0,0,0,0,0,0,0,0,0,0,0,0,0,0,0,0,0,0,0,0,0,0,0,0,0,0,0,0,0,0,0,0,0,0,0,0,0,0,0,0,0,0,0,0,0,0,0,0,0,0,0,0,0,0,0,-2.3617,-2.3617,0,-2.3623,-2.3623,-2.3624,-2.3579,-2.3577,-2.3576,-2.3575,-2.3582,-2.3583,-2.3585,0,0,0,0,0,0,0,0,0,0,0,0,0,-2.3567,-2.3568,-2.3617,-2.3617,-2.3617,-2.3623,-2.3623,-2.3624,-2.3579,-2.3577,-2.3576,-2.3574,-2.3582,-2.3583,-2.3585,0,0,0,0,0,0,0,0,0,0,0,0,0,-2.3583,-2.3569,-2.3617,-2.3596,-2.3594,-2.3623,-2.3623,-2.3624,-2.3579,-2.3577,-2.3575,-2.3574,-2.3581,-2.3583,-2.3585,-2.3636,0,0,-2.3591,-2.3592,0,0,0,0,0,0,0,0,-2.3582,-2.3585,-2.3599,-2.3597,-2.3595,-2.3598,-2.3608,-2.3628,-2.358,-2.3585,-2.3575,-2.3573,-2.3589,-2.359,-2.3596,-2.3636,-2.3636,-2.3591,-2.3593,-2.3594,-2.3594,0,0,0,0,0,0,0,-2.3581,-2.3584,-2.362,-2.3599,-2.3597,-2.3586,-2.3586,-2.3612,-2.3598,-2.3584,-2.3581,-2.3582,-2.3588,-2.3594,-2.3595,-2.3636,-2.3591,-2.3593,-2.3594,-2.3595,-2.3718,-2.372,0,0,0,0,0,0,-2.3583,-2.3583,-2.3619,-2.362,-2.3584,-2.3588,-2.3589,-2.3599,-2.3597,-2.3595,-2.3584,-2.358,-2.3591,-2.3593,-2.3596,-2.3655,-2.3594,-2.3595,-2.3597,-2.3716,-2.3718,-2.3721,0,0,0,0,0,0,-2.3582,-2.3586,-2.3619,-2.3601,-2.3604,-2.3591,-2.3604,-2.36,-2.3606,-2.3597,-2.3594,-2.3593,-2.359,-2.3593,-2.3626,-2.3654,-2.3596,-2.3598,-2.3714,-2.3717,-2.372,-2.3773,0,0,0,0,0,0,-2.358,-2.3586,-2.3605,-2.3602,-2.3605,-2.365,-2.3605,-2.3602,-2.361,-2.3605,-2.3604,-2.3602,-2.3589,-2.3623,-2.3628,-2.3656,-2.36,-2.3711,-2.3715,-2.3719,-2.3769,-2.3778,-2.3785,0,0,0,0,0,-2.3579,-2.362,-2.3606,-2.3611,-2.3629,-2.3651,-2.3653,-2.3636,-2.3612,-2.3632,-2.3625,-2.3602,-2.365,-2.3627,-2.3632,-2.3661,-2.3709,-2.3714,-2.3718,-2.3765,-2.3776,-2.3785,0,0,0,0,0,0,-2.3628,-2.3619,-2.3604,-2.3646,-2.3649,-2.3644,-2.3667,-2.3648,-2.3659,-2.3654,-2.3633,-2.3633,-2.367,-2.3669,-2.3643,-2.371,-2.3675,-2.3681,-2.3709,-2.3719,-2.3727,-2.3727,-2.3602,0,0,0,0,0,-2.3644,-2.3662,-2.3654,-2.3691,-2.3694,-2.3681,-2.369,-2.3676,-2.3679,-2.3681,-2.3677,-2.3681,-2.3697,-2.3708,-2.3722,-2.3768,-2.3767,-2.3791,-2.3799,-2.3805,-2.3811,-2.3835,-2.3845,-2.3736,-2.3736,-2.3736,0,0,-2.3676,-2.3674,-2.3687,-2.3701,-2.3703,-2.3723,-2.3682,-2.3705,-2.372,-2.3684,-2.3715,-2.3713,-2.3716,-2.3756,-2.3773,-2.3756,-2.3841,-2.3811,-2.3817,-2.3819,-2.3841,-2.3851,-2.3861,-2.3739,-2.3738,-2.3738,0,0,-2.3746,-2.3746,-2.3777,-2.3779,-2.3782,-2.3772,-2.378,-2.3777,-2.3774,-2.3804,-2.3778,-2.3795,-2.3823,-2.3826,-2.3832,-2.3902,-2.3882,-2.3907,-2.3951,-2.3974,-2.3983,-2.3991,-2.4016,-2.4025,-2.3913,-2.3913,-2.3913,0,-2.3787,-2.3816,-2.3796,-2.382,-2.3827,-2.3796,-2.3827,-2.383,-2.3837,-2.3843,-2.3823,-2.3857,-2.3857,-2.3897,-2.3914,-2.392,-2.3928,-2.3908,-2.3983,-2.3991,-2.3997,-2.4021,-2.4031,-2.3916,-2.3916,-2.3915,-2.3915,0,-2.3865,-2.3886,-2.391,-2.3918,-2.3928,-2.3956,-2.394,-2.3952,-2.3938,-2.393,-2.3962,-2.396,-2.3974,-2.3982,-2.3968,-2.402,-2.4009,-2.3987,-2.3952,-2.4011,-2.4034,-2.4043,-2.3921,-2.3919,-2.3918,-2.3918,0,0,-2.3967,-2.3962,-2.3972,-2.3975,-2.3975,-2.3991,-2.4017,-2.4029,-2.404,-2.4046,-2.4068,-2.4092,-2.4071,-2.4077,-2.4063,-2.4084,-2.414,-2.4059,-2.4058,-2.4074,-2.4197,-2.4215,-2.4226,-2.4126,-2.4128,-2.4129,-2.4197,0,-2.4035,-2.408,-2.4063,-2.4109,-2.4128,-2.4097,-2.412,-2.4123,-2.4117,-2.4132,-2.4125,-2.4142,-2.4113,-2.4116,-2.4136,-2.4129,-2.4165,-2.4124,-2.4146,-2.4148,-2.4147,-2.4237,-2.4256,-2.432,-2.4206,-2.4207,-2.4208,0,-2.4121,-2.413,-2.4178,-2.4175,-2.4182,-2.4203,-2.4213,-2.4228,-2.423,-2.4224,-2.423,-2.4212,-2.4237,-2.4202,-2.4238,-2.421,-2.4218,-2.4217,-2.4219,-2.4221,-2.4182,-2.4242,-2.434,-2.435,-2.4222,-2.4221,-2.422,0,-2.4191,-2.4215,-2.4247,-2.425,-2.4247,-2.4262,-2.4262,-2.4262,-2.4271,-2.4279,-2.4285,-2.4296,-2.4303,-2.4312,-2.4297,-2.4273,-2.4335,-2.4299,-2.4331,-2.4331,-2.4346,-2.4345,-2.4447,-2.435,-2.435,-2.435,-2.435,0,-2.427,-2.43,-2.4278,-2.4298,-2.4331,-2.4311,-2.4345,-2.4341,-2.4341,-2.4359,-2.4334,-2.4352,-2.433,-2.4346,-2.4335,-2.4366,-2.4369,-2.4365,-2.4361,-2.4367,-2.4368,-2.4373,-2.4368,-2.4352,-2.4352,-2.4351,-2.4351,0,-2.4354,-2.434,-2.4373,-2.4367,-2.4366,-2.4391,-2.4386,-2.4404,-2.4395,-2.4419,-2.4423,-2.441,-2.4427,-2.4413,-2.443,-2.4422,-2.4463,-2.4453,-2.4462,-2.446,-2.4493,-2.449,-2.4602,-2.4616,-2.451,-2.4511,-2.4512,0,-2.4405,-2.4428,-2.4424,-2.4434,-2.4435,-2.4452,-2.4461,-2.4441,-2.4451,-2.4455,-2.4473,-2.4487,-2.4499,-2.4527,-2.452,-2.4532,-2.4523,-2.4561,-2.4525,-2.453,-2.4524,-2.4523,-2.4525,-2.4569,-2.457,-2.4571,-2.4572,0,-2.4498,-2.449,-2.4503,-2.4513,-2.4524,-2.4532,-2.4537,-2.4547,-2.4527,-2.4539,-2.4557,-2.4565,-2.4582,-2.4597,-2.4607,-2.4606,-2.4586,-2.4583,-2.4591,-2.4598,-2.4603,-2.4601,-2.4483,-2.4581,-2.458,-2.4579,-2.4579,-2.4578,-2.4567,-2.4586,-2.4586,-2.4601,-2.4603,-2.4609,-2.4625,-2.4619,-2.4633,-2.4645,-2.4632,-2.4653,-2.4654,-2.4665,-2.4667,-2.4683,-2.4667,-2.4679,-2.4682,-2.4686,-2.469,-2.46,-2.4685,-2.4685,-2.4684,-2.4684,-2.4684,0,-2.4659,-2.4657,-2.4671,-2.468,-2.4692,-2.4671,-2.4675,-2.4687,-2.4706,-2.4708,-2.4719,-2.4739,-2.4753,-2.4746,-2.4759,-2.4773,-2.4764,-2.4777,-2.4776,-2.4776,-2.4704,-2.4696,-2.4784,-2.4784,-2.4784,-2.4784,-2.4784,-2.4784,-2.4708,-2.4738,-2.473,-2.4762,-2.476,-2.478,-2.4784,-2.4789,-2.4791,-2.4814,-2.4826,-2.4821,-2.482,-2.4832,-2.4845,-2.4842,-2.4848,-2.4865,-2.4859,-2.4791,-2.4782,-2.4772,-2.4764,-2.4866,-2.4866,-2.493,-2.4931,-2.4931]},{"header":{"parameterUnit":"m.s-1","parameterCategory":1,"la1":30.2991,"la2":30.254,"lo1":-89.0895,"lo2":-89.0444,"dy":0.0017,"dx":0.0017,"nx":28,"ny":28,"refTime":"2025-01-20T03:00:00:Z","depth":0,"parameterNumber":3,"parameterNumberName":"V-component_of_WINDS"},"data":[0,0,0,0,0,0,0,0,0,0,0,0,0,0,0,0,0,0,0,0,0,0,0,0,0,0,0,0,0,0,0,0,0,0,0,0,0,0,0,0,0,0,0,0,0,0,0,0,0,0,0,0,0,0,0,0,0,0,-4.8523,-4.8524,0,-4.8562,-4.8562,-4.8563,-4.8532,-4.8531,-4.8529,-4.8528,-4.8564,-4.8566,-4.8568,0,0,0,0,0,0,0,0,0,0,0,0,0,-4.8419,-4.8421,-4.8523,-4.8524,-4.8524,-4.8562,-4.8562,-4.8563,-4.8532,-4.8531,-4.8529,-4.8528,-4.8563,-4.8566,-4.8568,0,0,0,0,0,0,0,0,0,0,0,0,0,-4.8462,-4.8422,-4.8523,-4.8514,-4.8513,-4.8562,-4.8562,-4.8563,-4.8533,-4.8531,-4.8529,-4.8527,-4.8562,-4.8566,-4.8569,-4.8628,0,0,-4.8579,-4.858,0,0,0,0,0,0,0,0,-4.8459,-4.8465,-4.8514,-4.8514,-4.8514,-4.854,-4.8539,-4.8585,-4.8533,-4.8525,-4.8528,-4.8526,-4.8557,-4.8561,-4.8572,-4.863,-4.8631,-4.8579,-4.8581,-4.8582,-4.8583,0,0,0,0,0,0,0,-4.8456,-4.8464,-4.8538,-4.8515,-4.8515,-4.8506,-4.851,-4.8547,-4.8552,-4.8526,-4.8523,-4.8529,-4.8557,-4.8569,-4.8573,-4.8632,-4.8579,-4.8582,-4.8584,-4.8585,-4.8739,-4.8741,0,0,0,0,0,0,-4.8455,-4.8461,-4.8537,-4.854,-4.8481,-4.851,-4.8514,-4.8534,-4.8551,-4.8552,-4.853,-4.8527,-4.8565,-4.8569,-4.8574,-4.8645,-4.8582,-4.8585,-4.8587,-4.8737,-4.874,-4.8742,0,0,0,0,0,0,-4.8453,-4.8462,-4.8536,-4.85,-4.8509,-4.8513,-4.8536,-4.8535,-4.8548,-4.8555,-4.8555,-4.8543,-4.8563,-4.857,-4.8615,-4.8646,-4.8587,-4.859,-4.8735,-4.8738,-4.8741,-4.8787,0,0,0,0,0,0,-4.845,-4.8461,-4.8485,-4.8501,-4.8511,-4.8577,-4.8538,-4.8538,-4.8554,-4.855,-4.8566,-4.8567,-4.8562,-4.861,-4.8618,-4.8649,-4.8592,-4.8732,-4.8736,-4.874,-4.8782,-4.8791,-4.8798,0,0,0,0,0,-4.8446,-4.8495,-4.8486,-4.8495,-4.854,-4.8579,-4.8585,-4.8579,-4.8557,-4.858,-4.8584,-4.8566,-4.8641,-4.8615,-4.8624,-4.8656,-4.873,-4.8735,-4.874,-4.8779,-4.8789,-4.8798,0,0,0,0,0,0,-4.8481,-4.8497,-4.8487,-4.8543,-4.856,-4.8574,-4.8603,-4.8591,-4.8613,-4.8609,-4.86,-4.8604,-4.8652,-4.8658,-4.8629,-4.8714,-4.8682,-4.8688,-4.8709,-4.8719,-4.8726,-4.8724,-4.8595,0,0,0,0,0,-4.8495,-4.8527,-4.8538,-4.8586,-4.8596,-4.8598,-4.8614,-4.8609,-4.8626,-4.8633,-4.864,-4.8656,-4.8683,-4.8701,-4.8726,-4.8783,-4.8786,-4.8809,-4.8817,-4.8824,-4.883,-4.8861,-4.8871,-4.8758,-4.8758,-4.8758,0,0,-4.8525,-4.8537,-4.8558,-4.8594,-4.8606,-4.8638,-4.8604,-4.8639,-4.8662,-4.8637,-4.8682,-4.8688,-4.8705,-4.8756,-4.8779,-4.8763,-4.8862,-4.883,-4.8835,-4.8838,-4.8867,-4.8877,-4.8887,-4.8761,-4.8761,-4.876,0,0,-4.8595,-4.8608,-4.865,-4.8663,-4.8684,-4.8685,-4.8695,-4.8711,-4.8714,-4.8759,-4.8741,-4.8768,-4.8814,-4.8827,-4.884,-4.8916,-4.8901,-4.8924,-4.8966,-4.8996,-4.9005,-4.9013,-4.904,-4.905,-4.893,-4.893,-4.893,0,-4.8629,-4.8677,-4.8672,-4.8709,-4.8725,-4.8706,-4.8748,-4.8761,-4.8787,-4.8798,-4.878,-4.8839,-4.8849,-4.8904,-4.8922,-4.8933,-4.8944,-4.8923,-4.9004,-4.9012,-4.9019,-4.9045,-4.9056,-4.8933,-4.8933,-4.8932,-4.8932,0,-4.8718,-4.8752,-4.8783,-4.8811,-4.8831,-4.887,-4.887,-4.889,-4.8883,-4.8886,-4.8931,-4.8942,-4.897,-4.8982,-4.8975,-4.9036,-4.9025,-4.9006,-4.8973,-4.9033,-4.9057,-4.9067,-4.8937,-4.8936,-4.8935,-4.8935,0,0,-4.8811,-4.8837,-4.8848,-4.8861,-4.8882,-4.8908,-4.8945,-4.8974,-4.8991,-4.901,-4.9041,-4.9081,-4.9064,-4.9079,-4.9072,-4.9099,-4.9159,-4.9076,-4.9076,-4.9091,-4.9227,-4.9241,-4.9253,-4.9148,-4.915,-4.9152,-4.9225,0,-4.8883,-4.8951,-4.8947,-4.901,-4.9041,-4.9023,-4.9056,-4.9072,-4.9075,-4.9101,-4.9104,-4.9133,-4.9108,-4.9117,-4.9142,-4.9146,-4.9186,-4.9141,-4.9177,-4.9178,-4.9174,-4.9266,-4.9281,-4.935,-4.9235,-4.9236,-4.9237,0,-4.8976,-4.9,-4.9066,-4.9083,-4.9096,-4.9126,-4.9152,-4.9177,-4.9194,-4.9195,-4.9212,-4.9201,-4.9238,-4.9205,-4.9255,-4.9225,-4.9239,-4.9243,-4.9246,-4.9249,-4.9212,-4.9272,-4.9372,-4.9382,-4.9252,-4.9251,-4.925,0,-4.9038,-4.9086,-4.9133,-4.9144,-4.9165,-4.9186,-4.9196,-4.9211,-4.9228,-4.925,-4.9261,-4.9287,-4.9301,-4.932,-4.9317,-4.9292,-4.9368,-4.9334,-4.937,-4.937,-4.9387,-4.9386,-4.9491,-4.9395,-4.9395,-4.9395,-4.9395,0,-4.9118,-4.916,-4.9161,-4.919,-4.9235,-4.923,-4.9275,-4.9282,-4.9296,-4.9324,-4.931,-4.9336,-4.933,-4.9356,-4.9354,-4.9396,-4.9402,-4.9403,-4.9402,-4.9405,-4.9405,-4.9415,-4.941,-4.9398,-4.9397,-4.9397,-4.9396,0,-4.9195,-4.9198,-4.9247,-4.9263,-4.9268,-4.9301,-4.9314,-4.9341,-4.9343,-4.938,-4.9388,-4.9392,-4.9422,-4.942,-4.9454,-4.9452,-4.9505,-4.9498,-4.95,-4.9498,-4.9534,-4.9531,-4.9649,-4.9665,-4.9559,-4.956,-4.9561,0,-4.9247,-4.9279,-4.9299,-4.9318,-4.9329,-4.9359,-4.9378,-4.9373,-4.9393,-4.9415,-4.9439,-4.9468,-4.9491,-4.9541,-4.9545,-4.9571,-4.9565,-4.9604,-4.9568,-4.957,-4.9566,-4.9564,-4.9567,-4.9612,-4.9613,-4.9614,-4.9615,0,-4.9338,-4.9338,-4.9366,-4.9394,-4.9417,-4.9438,-4.9458,-4.9474,-4.9471,-4.9494,-4.9526,-4.9544,-4.9579,-4.9608,-4.9633,-4.9641,-4.9628,-4.9626,-4.9636,-4.9639,-4.9639,-4.964,-4.952,-4.9623,-4.9622,-4.9622,-4.9621,-4.9621,-4.9404,-4.9432,-4.9451,-4.9482,-4.9497,-4.9516,-4.9542,-4.9548,-4.9575,-4.9605,-4.96,-4.9636,-4.9652,-4.9684,-4.9694,-4.9721,-4.9707,-4.9721,-4.9724,-4.9728,-4.9732,-4.9635,-4.9726,-4.9725,-4.9725,-4.9725,-4.9725,0,-4.9495,-4.9507,-4.9536,-4.9565,-4.9589,-4.9576,-4.9597,-4.9618,-4.965,-4.9667,-4.969,-4.9727,-4.9755,-4.9762,-4.9789,-4.981,-4.9804,-4.9817,-4.9815,-4.9818,-4.9743,-4.9733,-4.9821,-4.9821,-4.9821,-4.9821,-4.9821,-4.9821,-4.9546,-4.9592,-4.9594,-4.9648,-4.9658,-4.9694,-4.9708,-4.9725,-4.9738,-4.978,-4.9804,-4.9809,-4.9822,-4.985,-4.9875,-4.9876,-4.9887,-4.9903,-4.9901,-4.9832,-4.9823,-4.9813,-4.9803,-4.9905,-4.9905,-4.9973,-4.9974,-4.9974]}]]